Home > Weather > Edmonton > Past weeks

Flag for Canada Past Weather in Edmonton, Alberta, Canada — Yesterday and Last 2 Weeks

Now
62 °F

Cool.


Feels Like: 62 °F
Forecast: 58 / 80 °F
Wind: 2 mph from South

Location: Edmonton Municipal

Current Time: Jul 27, 2016 at 3:41:50 AM

Latest Report: Jul 27, 2016 at 3:00 AM


Visibility: N/A

Pressure: 30.06 "Hg (27.70 "Hg at 692m altitude)

Humidity: 95%

Dew Point: 60 °F

Location of EdmontonLocation

Past Weather in Edmonton — Graph

°F

Edmonton Temperature Yesterday

Maximum temperature yesterday: 78 °F (at 2:00 PM)
Minimum temperature yesterday: 59 °F (at 6:00 AM)
Average temperature yesterday: 69 °F

High & Low Weather Summary for the Past Weeks

 TemperatureHumidityPressure
High83 °F (Jul 24, 3:00 PM)98% (Jul 15, 4:00 PM)30.19 "Hg (Jul 15, 4:00 PM)
Low54 °F (Jul 15, 5:00 AM)27% (Jul 24, 5:00 PM)29.72 "Hg (Jul 19, 8:00 PM)
Average67 °F63%29.95 "Hg
* Reported Jul 12 2:00 AM — Jul 27 2:00 AM, Edmonton, Weather by CustomWeather, © 2016

Note: Actual official high and low records may vary slightly from our data, if they occured in-between our weather recording intervals... More about our weather records

Advertising

Edmonton Weather History for the Previous 24 Hours

Scroll right to see more
 ConditionsComfort  
Time TempWeatherWind HumidityBarometerVisibility
2:00 AM
Wed, Jul 27
64 °FMild.5 mph88%30.06 "HgN/A
1:00 AM66 °FMild.2 mph85%30.06 "HgN/A
12:00 AM67 °FMild.1 mph73%30.05 "HgN/A
11:00 PM
Tue, Jul 26
69 °FMild.2 mph67%30.04 "HgN/A
10:00 PM71 °FMild.5 mph59%30.03 "HgN/A
9:00 PM76 °FMild.2 mph45%30.01 "HgN/A
8:00 PM78 °FWarm.1 mph42%30.01 "HgN/A
7:00 PM78 °FWarm.2 mph48%30.01 "HgN/A
5:00 PM73 °FMild.12 mph60%30.04 "HgN/A
4:00 PM74 °FMild.9 mph67%30.03 "HgN/A
3:00 PM76 °FMild.2 mph51%30.03 "HgN/A
2:00 PM78 °FWarm.2 mph48%30.04 "HgN/A
1:00 PM76 °FMild.5 mph52%30.04 "HgN/A
12:00 PM73 °FMild.3 mph56%30.05 "HgN/A
11:00 AM71 °FMild.5 mph60%30.06 "HgN/A
10:00 AM69 °FMild.7 mph65%30.06 "HgN/A
9:00 AM67 °FMild.9 mph68%30.05 "HgN/A
8:00 AM64 °FMild.8 mph73%30.05 "HgN/A
7:00 AM61 °FCool.7 mph82%30.05 "HgN/A
6:00 AM59 °FCool.3 mph85%30.04 "HgN/A
5:00 AM60 °FCool.5 mph82%30.02 "HgN/A
4:00 AM60 °FCool.5 mph81%30.02 "HgN/A
3:00 AM62 °FCool.9 mph75%30.02 "HgN/A
Weather by CustomWeather, © 2016

See weather overviewHow to use our weather pages